sat.trackr.live / text

‹ back to catalog

BANDWAGON-2 OBJECT AC

NORAD 62403 · 2024-247AC

PAYLOAD ACTIVE UNKNOWN

§ Identity

Operator
Country
TBD
Launch date
2024-12-21
Launch site
AFWTR
Launch vehicle
Mass (kg)
RCS (m²)

External: N2YO · Heavens-Above · Gunter

§ Orbital elements

Epoch: 2026-09-21T06:38:02.953248Z

Period
93.34 min
Inclination
45.0014°
Eccentricity
0.0004510
Mean motion
15.42679510 rev/d
Perigee alt
435.1 km
Apogee alt
441.3 km
Semi-major
6,816.3 km
B*
4.1935e-4
RAAN
100.8719°
Arg perigee
209.4773°
Mean anomaly
150.5862°
Rev number
9,798

§ Raw data

BANDWAGON-2 OBJECT AC1 62403U 24247AC  26264.27642307  .00018384  00000+0  41935-3 0  99932 62403  45.0014 100.8719 0004510 209.4773 150.5862 15.42679510 97989

JSON: /api/v1/satellites/62403 · /tle

For live sub-satellite position, see the globe view (requires WebGL).

§ Visibility from observer

Set your observer location to see the next 7 days of passes ≥ 10°. The values pass through the URL so the page stays shareable.

No JS? Fill the form by hand. The geolocation button needs JavaScript.